GW0707 Weather Reports


time (UTC)temp
F
wind
direction
speed
knots
gust
knots
rain 1hr
in
rain 24hr
in
rain mn
in
humidity
%
barometer
mb
20260503202703 59 356 2.6 6.1 0.00 0.01 0.01 78 1014.2
20260503201803 60 352 1.7 6.1 0.00 0.01 0.01 78 1014.0
20260503200903 60 2 2.6 6.1 0.00 0.01 0.01 78 1013.7
20260503200003 60 352 2.6 7.0 0.00 0.01 0.01 78 1013.6
20260503195403 60 353 3.5 7.8 0.00 0.01 0.01 78 1013.6
20260503194503 60 347 2.6 7.0 0.00 0.01 0.01 77 1013.5
20260503193603 61 354 2.6 7.8 0.00 0.01 0.01 77 1013.4
20260503192703 61 355 1.7 5.2 0.00 0.01 0.01 77 1013.3
20260503192014 61 347 2.6 7.8 0.00 0.01 0.01 77 1013.2
20260503191113 61 337 1.7 5.2 0.00 0.01 0.01 77 1013.3
20260503190003 62 7 1.7 8.7 0.00 0.01 0.01 76 1013.2
20260503185403 62 5 3.5 9.6 0.00 0.01 0.01 76 1013.1
20260503184503 62 338 2.6 9.6 0.00 0.01 0.01 75 1013.0
20260503183603 62 6 4.3 8.7 0.00 0.01 0.01 74 1012.7
20260503182704 62 358 5.2 12.2 0.00 0.01 0.01 74 1012.8
20260503182014 62 357 5.2 12.2 0.00 0.01 0.01 73 1012.9
20260503180903 63 4 4.3 12.2 0.00 0.01 0.01 73 1012.9
20260503180004 64 359 5.2 12.2 0.00 0.01 0.01 72 1013.0
20260503175403 64 5 4.3 12.2 0.00 0.01 0.01 71 1013.0
20260503174713 64 338 6.1 12.2 0.00 0.01 0.01 70 1012.9
20260503173603 66 336 4.3 12.2 0.00 0.01 0.01 68 1013.0
20260503172914 66 330 5.2 13.0 0.00 0.01 0.01 67 1013.0
20260503171803 66 333 6.1 13.0 0.00 0.01 0.01 67 1012.7
20260503170903 67 349 7.0 14.8 0.00 0.01 0.01 65 1012.9
20260503150903 70 308 7.0 14.8 0.00 0.01 0.01 63 1012.7
20260503150213 71 319 6.1 14.8 0.00 0.01 0.01 63 1012.5
20260503130903 67 321 4.3 9.6 0.00 0.01 0.01 72 1013.4
20260503130214 65 312 5.2 9.6 0.00 0.01 0.01 74 1013.3
20260503081113 58 78 0.0 1.7 0.00 0.01 0.01 90 1013.9
20260503072703 57 0 0.0 0.0 0.00 0.01 0.01 91 1013.9
20260503071803 57 354 0.0 0.9 0.00 0.01 0.01 90 1013.7
20260503070903 57 352 0.0 0.9 0.00 0.01 0.01 91 1013.8
20260503070214 57 351 0.0 0.9 0.00 0.01 0.01 91 1013.8
20260503054503 56 28 0.0 0.9 0.00 0.00 0.00 91 1013.8
20260503053603 56 19 0.0 0.9 0.00 0.00 0.00 91 1013.6
20260503052703 56 9 0.0 0.9 0.00 0.00 0.00 91 1013.6
20260503051803 56 26 0.0 1.7 0.00 0.00 0.00 91 1013.2
20260503050903 56 258 0.0 0.9 0.00 0.00 0.00 91 1013.5
20260503050003 56 254 0.0 0.9 0.00 0.00 0.00 91 1013.6
20260503045403 56 271 0.0 0.9 0.00 0.00 0.00 91 1013.8
20260503044504 56 0 0.0 0.0 0.00 0.00 0.00 91 1013.6
20260503043603 56 264 0.0 0.9 0.00 0.00 0.00 91 1013.6
20260503042703 56 268 0.0 0.9 0.00 0.00 0.00 91 1013.3
20260503041803 56 284 0.0 0.9 0.00 0.00 0.00 91 1013.2
20260503040903 56 224 0.0 0.9 0.00 0.00 0.00 91 1013.3
20260503040003 56 196 0.0 0.9 0.00 0.00 0.00 91 1013.3
20260503035403 56 188 0.0 0.9 0.00 0.00 0.00 91 1013.5
20260503034503 56 316 0.0 0.9 0.00 0.00 0.00 91 1013.3
20260503033603 56 0 0.0 0.0 0.00 0.00 0.00 91 1013.4
20260503032913 56 269 0.0 0.9 0.00 0.00 0.00 90 1013.5
20260503031803 56 265 0.0 0.9 0.00 0.00 0.00 90 1013.6
20260503030903 56 0 0.0 0.0 0.00 0.00 0.00 90 1013.6
20260503030004 56 266 0.0 0.9 0.00 0.00 0.00 90 1013.6
20260503025403 56 267 0.0 0.9 0.00 0.00 0.00 90 1014.0
20260503024503 56 0 0.0 0.0 0.00 0.00 0.00 90 1013.8
20260503023813 56 0 0.0 0.0 0.00 0.00 0.00 90 1013.6
20260503022703 56 0 0.0 0.0 0.00 0.00 0.00 91 1013.6
20260503022013 56 334 0.0 0.9 0.00 0.00 0.00 90 1013.9
20260503020903 56 4 0.0 1.7 0.00 0.00 0.00 90 1014.0
20260503020003 56 28 0.0 1.7 0.00 0.00 0.00 90 1013.9
20260503015403 56 303 0.0 0.9 0.00 0.00 0.00 90 1014.1
20260503014503 56 245 0.0 0.9 0.00 0.00 0.00 89 1014.2
20260503013603 56 263 0.0 0.9 0.00 0.00 0.00 89 1013.9
20260503012703 56 275 0.0 0.9 0.00 0.00 0.00 88 1014.1
20260503011803 56 0 0.0 0.0 0.00 0.00 0.00 88 1014.1
20260503010903 56 0 0.0 0.0 0.00 0.00 0.00 88 1014.4
20260503010003 56 0 0.0 0.0 0.00 0.00 0.00 87 1014.5
20260503005403 56 0 0.0 0.0 0.00 0.00 0.00 87 1014.5
20260503004713 56 0 0.0 0.0 0.00 0.00 0.00 87 1014.4
20260503003814 56 298 0.0 0.9 0.00 0.00 0.00 88 1014.2
20260503002703 56 264 0.9 0.9 0.00 0.00 0.00 88 1014.6
20260503001803 56 285 0.0 1.7 0.00 0.00 0.00 87 1014.5
20260503000904 56 323 0.9 1.7 0.00 0.00 0.00 87 1014.6
20260503000003 56 285 0.0 0.9 0.00 0.00 0.00 88 1014.6
20260502235403 56 271 0.0 0.9 0.00 0.00 0.00 87 1014.6
20260502234503 57 334 0.0 0.9 0.00 0.00 0.00 87 1014.6
20260502233603 57 305 0.0 0.9 0.00 0.00 0.00 87 1014.8
20260502232913 57 315 0.0 0.9 0.00 0.00 0.00 87 1014.9
20260502231803 57 321 0.9 1.7 0.00 0.00 0.00 87 1015.0
20260502230903 57 300 0.0 0.9 0.00 0.00 0.00 87 1014.8
20260502230011 57 295 0.0 1.7 0.00 0.00 0.00 86 1014.9
20260502225403 58 315 0.9 1.7 0.00 0.00 0.00 87 1014.9
20260502224503 58 307 0.9 2.6 0.00 0.00 0.00 86 1014.8
20260502223603 58 287 0.0 1.7 0.00 0.00 0.00 86 1015.0
20260502222703 58 275 0.0 1.7 0.00 0.00 0.00 86 1014.9
20260502221803 58 299 0.9 1.7 0.00 0.00 0.00 85 1015.1
20260502220903 59 302 0.0 1.7 0.00 0.00 0.00 85 1015.0
20260502220003 59 273 0.0 0.9 0.00 0.00 0.00 85 1015.1
20260502215403 59 276 0.0 0.9 0.00 0.00 0.00 85 1014.9
20260502214503 60 278 0.0 0.9 0.00 0.00 0.00 85 1015.2
20260502213603 60 327 0.0 1.7 0.00 0.00 0.00 85 1015.0
20260502212703 60 309 0.0 1.7 0.00 0.00 0.00 85 1015.2
20260502211803 60 312 0.9 1.7 0.00 0.00 0.00 84 1014.8
20260502210903 60 346 0.9 1.7 0.00 0.00 0.00 84 1015.0
20260502210003 60 347 0.9 1.7 0.00 0.00 0.00 84 1014.7
20260502205403 60 339 0.9 1.7 0.00 0.00 0.00 83 1014.7
20260502204713 61 310 0.9 1.7 0.00 0.00 0.00 84 1014.7
20260502203603 61 283 0.9 2.6 0.00 0.00 0.00 83 1014.6